Weather History for Barter Island, AK

Change the Weather History Date:

Saturday, August 17, 2013

  Actual Average Record
Temperature  
Mean Temperature 44 °F -  
Max Temperature 46 °F 41 °F 55 °F (2012)
Min Temperature 41 °F 34 °F 12 °F (1999)
Degree Days  
Heating Degree Days 22    
Moisture  
Dew Point 44 °F    
Average Humidity 96    
Maximum Humidity 100    
Minimum Humidity 93    
Precipitation  
Precipitation 0.01 in - - ()
Sea Level Pressure  
Sea Level Pressure 29.74 in    
Wind  
Wind Speed 11 mph (ESE)    
Max Wind Speed 16 mph    
Max Gust Speed -    
Visibility 4 miles    
Events Rain    
Averages and records for this station are not official NWS values.
T = Trace of Precipitation, MM = Missing Value Source: NWS Daily Summary

Daily Weather History Graph

Daily Weather History Graph

Search for Another Location

Airport:

Trip Planner

Search our weather history database for the weather conditions in past years. The results will help you decide how hot, cold, wet, or windy it might be!

Date:

Astronomy

Aug. 17, 2013 Rise Set
Actual Time 4:41 AM AKDT 10:30 PM AKDT
Civil Twilight 2:34 AM AKDT 12:28 AM AKDT
Nautical Twilight Sun does not rise Sun does not rise
Astronomical Twilight Sun does not rise Sun does not rise
Moon 9:13 PM AKDT (8/17) No Moon Set
Length of Visible Light 21h 53m
Length of Day
17h 48m
Waxing Gibbous, 85% of the Moon is Illuminated
Aug 17
Waxing Gibbous
Aug 20
Full
Aug 28
Last Quarter
Sep 5
New
Sep 12
First Quarter

Hourly Weather History & Observations

Time (AKDT) Temp. Windchill Dew Point Humidity Pressure Visibility Wind Dir Wind Speed Gust Speed Precip Events Conditions
12:01 AM 41.0 °F 32.8 °F 41.0 °F 100% 29.75 in 1.0 mi East 16.1 mph - N/A   Overcast
12:42 AM 41.0 °F 33.1 °F 39.2 °F 93% 29.76 in 1.0 mi East 15.0 mph - N/A   Overcast
1:01 AM 41.0 °F 33.1 °F 39.2 °F 93% 29.76 in 1.2 mi East 15.0 mph - N/A   Overcast
1:13 AM 41.0 °F 33.9 °F 39.2 °F 93% 29.76 in 1.0 mi East 12.7 mph - N/A   Overcast
1:31 AM 41.0 °F 34.3 °F 39.2 °F 93% 29.75 in 1.2 mi East 11.5 mph - N/A   Overcast
1:56 AM 41.0 °F 34.3 °F 41.0 °F 100% 29.76 in 1.2 mi East 11.5 mph - N/A   Overcast
2:01 AM 41.0 °F 34.3 °F 41.0 °F 100% 29.76 in 1.5 mi ESE 11.5 mph - N/A   Overcast
2:27 AM 42.8 °F 37.0 °F 42.8 °F 100% 29.75 in 2.0 mi ESE 10.4 mph - 0.00 in Rain Light Rain
2:43 AM 44.6 °F 38.1 °F 42.8 °F 93% 29.75 in 4.0 mi ESE 13.8 mph - 0.00 in Rain Light Rain
3:01 AM 44.1 °F 37.4 °F 43.0 °F 96% 29.75 in 3.0 mi ESE 13.8 mph - 0.00 in Rain Light Rain
3:37 AM 44.6 °F 38.4 °F 44.6 °F 100% 29.75 in 2.5 mi ESE 12.7 mph - 0.00 in   Overcast
3:48 AM 44.6 °F 38.8 °F 44.6 °F 100% 29.75 in 3.0 mi ESE 11.5 mph - 0.00 in   Overcast
4:01 AM 44.1 °F 38.1 °F 43.0 °F 96% 29.75 in 4.0 mi ESE 11.5 mph - 0.00 in   Overcast
4:11 AM 44.6 °F 38.8 °F 42.8 °F 93% 29.75 in 1.8 mi ESE 11.5 mph - N/A   Overcast
4:31 AM 44.6 °F 38.8 °F 42.8 °F 93% 29.75 in 1.8 mi ESE 11.5 mph - 0.00 in Rain Light Rain
4:57 AM 44.6 °F 38.8 °F 42.8 °F 93% 29.75 in 1.8 mi ESE 11.5 mph - 0.00 in   Overcast
5:01 AM 44.6 °F 38.8 °F 42.8 °F 93% 29.75 in 2.0 mi ESE 11.5 mph - 0.00 in   Overcast
5:07 AM 44.1 °F 38.1 °F 43.0 °F 96% 29.75 in 2.0 mi ESE 11.5 mph - 0.00 in   Overcast
5:17 AM 44.6 °F 38.8 °F 42.8 °F 93% 29.75 in 2.5 mi ESE 11.5 mph - N/A   Overcast
5:30 AM 44.6 °F 39.2 °F 42.8 °F 93% 29.75 in 1.5 mi ESE 10.4 mph - N/A   Overcast
6:15 AM 44.6 °F 39.7 °F 42.8 °F 93% 29.76 in 1.2 mi ESE 9.2 mph - N/A Rain Light Rain
6:24 AM 44.6 °F 39.7 °F 42.8 °F 93% 29.75 in 1.0 mi ESE 9.2 mph - N/A Rain Light Rain
6:35 AM 44.6 °F 39.7 °F 42.8 °F 93% 29.76 in 1.2 mi ESE 9.2 mph - N/A Rain Light Rain
6:48 AM 44.6 °F 40.2 °F 42.8 °F 93% 29.75 in 1.5 mi East 8.1 mph - N/A   Overcast
6:53 AM 44.6 °F 40.7 °F 42.8 °F 93% 29.76 in 1.0 mi ESE 6.9 mph - N/A   Overcast
7:01 AM 44.1 °F 40.1 °F 43.0 °F 96% 29.75 in 1.0 mi East 6.9 mph - N/A   Overcast
7:06 AM 44.6 °F 40.2 °F 42.8 °F 93% 29.75 in 1.2 mi East 8.1 mph - N/A   Overcast
7:15 AM 44.6 °F 40.2 °F 42.8 °F 93% 29.75 in 3.0 mi East 8.1 mph - N/A   Overcast
7:24 AM 44.6 °F 40.2 °F 42.8 °F 93% 29.76 in 6.0 mi ESE 8.1 mph - N/A   Overcast
7:31 AM 44.6 °F 40.2 °F 42.8 °F 93% 29.76 in 7.0 mi ESE 8.1 mph - N/A   Overcast
8:01 AM 44.6 °F 39.7 °F 44.6 °F 100% 29.76 in 4.0 mi ESE 9.2 mph - 0.01 in   Overcast
8:20 AM 44.6 °F 39.2 °F 44.6 °F 100% 29.76 in 1.8 mi ESE 10.4 mph - 0.01 in   Overcast
8:30 AM 44.6 °F 39.7 °F 44.6 °F 100% 29.76 in 7.0 mi ESE 9.2 mph - 0.01 in   Overcast
9:01 AM 44.6 °F 39.7 °F 44.6 °F 100% 29.76 in 10.0 mi ESE 9.2 mph - 0.01 in   Overcast
9:20 AM 44.6 °F 40.2 °F 44.6 °F 100% 29.76 in 10.0 mi ESE 8.1 mph - 0.01 in   Overcast
9:44 AM 44.6 °F 39.2 °F 44.6 °F 100% 29.76 in 6.0 mi ESE 10.4 mph - 0.01 in   Overcast
10:01 AM 45.0 °F 40.1 °F 44.1 °F 97% 29.76 in 10.0 mi ESE 9.2 mph - 0.01 in   Overcast
11:01 AM 46.0 °F 41.4 °F 45.0 °F 96% 29.76 in 10.0 mi ESE 9.2 mph - N/A   Overcast
11:09 AM 46.4 °F 41.9 °F 44.6 °F 93% 29.76 in 10.0 mi ESE 9.2 mph - N/A   Overcast
12:01 PM 46.9 °F - 45.0 °F 93% 29.75 in 10.0 mi ESE 9.2 mph - N/A   Overcast
12:17 PM 46.4 °F 41.9 °F 44.6 °F 93% 29.75 in 10.0 mi East 9.2 mph - N/A   Overcast
1:01 PM 46.0 °F 41.4 °F 45.0 °F 96% 29.75 in 7.0 mi East 9.2 mph - N/A   Overcast
1:12 PM 44.6 °F 39.7 °F 44.6 °F 100% 29.75 in 7.0 mi East 9.2 mph - N/A   Overcast
1:41 PM 44.6 °F 39.2 °F 44.6 °F 100% 29.75 in 1.8 mi East 10.4 mph - N/A   Overcast
1:48 PM 44.6 °F 39.2 °F 44.6 °F 100% 29.75 in 0.8 mi East 10.4 mph - N/A   Overcast
1:54 PM 44.6 °F 39.2 °F 44.6 °F 100% 29.75 in 1.2 mi East 10.4 mph - N/A   Overcast
1:59 PM 44.6 °F 39.2 °F 44.6 °F 100% 29.75 in 3.0 mi East 10.4 mph - N/A   Overcast
2:01 PM 45.0 °F 39.7 °F 44.1 °F 97% 29.75 in 5.0 mi East 10.4 mph - N/A   Overcast
3:01 PM 45.0 °F 40.1 °F 44.1 °F 97% 29.74 in 8.0 mi East 9.2 mph - N/A   Mostly Cloudy
3:32 PM 44.6 °F 39.2 °F 44.6 °F 100% 29.73 in 1.5 mi East 10.4 mph - N/A   Mostly Cloudy
3:36 PM 44.6 °F 39.2 °F 44.6 °F 100% 29.73 in 1.0 mi East 10.4 mph - N/A   Mostly Cloudy
3:45 PM 46.4 °F 41.5 °F 44.6 °F 93% 29.73 in 2.0 mi East 10.4 mph - N/A   Mostly Cloudy
3:51 PM 46.4 °F 41.5 °F 44.6 °F 93% 29.73 in 3.0 mi East 10.4 mph - N/A   Scattered Clouds
4:01 PM 46.4 °F 41.9 °F 44.6 °F 93% 29.73 in 9.0 mi East 9.2 mph - N/A   Mostly Cloudy
4:13 PM 46.4 °F 41.5 °F 44.6 °F 93% 29.73 in 1.2 mi East 10.4 mph - N/A   Mostly Cloudy
4:26 PM 46.4 °F 41.5 °F 44.6 °F 93% 29.73 in 1.2 mi East 10.4 mph - N/A   Overcast
4:34 PM 46.4 °F 41.5 °F 44.6 °F 93% 29.72 in 1.0 mi East 10.4 mph - N/A   Overcast
4:42 PM 46.4 °F 41.9 °F 44.6 °F 93% 29.72 in 3.0 mi East 9.2 mph - N/A   Overcast
4:55 PM 46.4 °F 41.9 °F 44.6 °F 93% 29.72 in 1.8 mi East 9.2 mph - N/A   Overcast
5:01 PM 46.0 °F 41.0 °F 45.0 °F 96% 29.72 in 1.8 mi East 10.4 mph - N/A   Overcast
5:05 PM 46.4 °F 41.5 °F 44.6 °F 93% 29.72 in 3.0 mi East 10.4 mph - N/A   Overcast
5:43 PM 46.4 °F 41.9 °F 44.6 °F 93% 29.72 in 10.0 mi East 9.2 mph - N/A   Overcast
6:01 PM 46.0 °F 41.0 °F 45.0 °F 96% 29.72 in 10.0 mi East 10.4 mph - N/A   Overcast
6:17 PM 44.6 °F 39.2 °F 44.6 °F 100% 29.71 in 1.8 mi East 10.4 mph - N/A   Overcast
6:23 PM 44.6 °F 39.2 °F 44.6 °F 100% 29.71 in 0.8 mi East 10.4 mph - N/A   Overcast
6:28 PM 46.4 °F 41.5 °F 44.6 °F 93% 29.71 in 1.2 mi East 10.4 mph - N/A   Overcast
6:33 PM 46.4 °F 41.1 °F 44.6 °F 93% 29.71 in 3.0 mi ESE 11.5 mph - N/A   Overcast
7:01 PM 46.0 °F 41.4 °F 45.0 °F 96% 29.71 in 10.0 mi East 9.2 mph - N/A   Overcast
8:01 PM 46.0 °F 41.4 °F 45.0 °F 96% 29.70 in 9.0 mi East 9.2 mph - N/A   Overcast
8:16 PM 44.6 °F 39.2 °F 44.6 °F 100% 29.70 in 1.8 mi ESE 10.4 mph - N/A   Overcast
8:20 PM 44.6 °F 39.7 °F 44.6 °F 100% 29.70 in 0.8 mi ESE 9.2 mph - N/A   Overcast
8:29 PM 46.4 °F 41.5 °F 44.6 °F 93% 29.70 in 1.2 mi ESE 10.4 mph - N/A   Overcast
8:32 PM 46.4 °F 41.5 °F 46.4 °F 100% 29.70 in 3.0 mi ESE 10.4 mph - N/A   Overcast
8:39 PM 46.4 °F 41.5 °F 46.4 °F 100% 29.70 in 1.8 mi ESE 10.4 mph - N/A   Overcast
8:48 PM 46.4 °F 41.5 °F 46.4 °F 100% 29.71 in 2.0 mi ESE 10.4 mph - N/A   Overcast
8:56 PM 46.4 °F 41.5 °F 44.6 °F 93% 29.70 in 8.0 mi ESE 10.4 mph - N/A   Overcast
9:01 PM 46.0 °F 41.0 °F 45.0 °F 96% 29.71 in 8.0 mi ESE 10.4 mph - N/A   Overcast
9:49 PM 46.4 °F 41.9 °F 44.6 °F 93% 29.70 in 10.0 mi ESE 9.2 mph - N/A   Overcast
10:01 PM 46.0 °F 42.5 °F 45.0 °F 96% 29.70 in 10.0 mi SE 6.9 mph - N/A   Overcast
10:29 PM 46.4 °F 42.9 °F 44.6 °F 93% 29.70 in 10.0 mi SSE 6.9 mph - N/A   Overcast
11:01 PM 46.0 °F 41.9 °F 45.0 °F 96% 29.70 in 10.0 mi SE 8.1 mph - N/A   Overcast